TimeEDT,TemperatureF,Dew PointF,Humidity,Sea Level PressureIn,VisibilityMPH,Wind Direction,Wind SpeedMPH,Gust SpeedMPH,PrecipitationIn,Events,Conditions,WindDirDegrees,DateUTC
12:51 AM,42.1,37.9,85,30.08,-9999.0,North,11.5,-,N/A,,Unknown,10,2013-05-09 04:51:00
1:51 AM,42.1,37.9,85,30.08,-9999.0,North,10.4,-,N/A,,Unknown,350,2013-05-09 05:51:00
2:51 AM,41.0,37.0,86,30.07,-9999.0,NNE,6.9,-,N/A,,Unknown,20,2013-05-09 06:51:00
3:51 AM,39.9,36.0,86,30.08,-9999.0,Calm,Calm,-,N/A,,Unknown,0,2013-05-09 07:51:00
4:51 AM,39.9,36.0,86,30.08,-9999.0,NE,3.5,-,N/A,,Unknown,40,2013-05-09 08:51:00
5:51 AM,39.9,36.0,86,30.09,-9999.0,ENE,3.5,-,N/A,,Unknown,70,2013-05-09 09:51:00
6:51 AM,39.0,35.1,86,30.11,-9999.0,ENE,6.9,-,N/A,,Unknown,60,2013-05-09 10:51:00
7:51 AM,37.9,35.1,89,30.14,-9999.0,ENE,8.1,-,0.01,,Unknown,60,2013-05-09 11:51:00
8:51 AM,37.0,34.0,89,30.17,-9999.0,ENE,12.7,-,N/A,,Unknown,70,2013-05-09 12:51:00
9:51 AM,37.0,33.1,86,30.17,-9999.0,ENE,17.3,-,N/A,,Unknown,70,2013-05-09 13:51:00
10:51 AM,37.0,33.1,86,30.19,-9999.0,East,16.1,-,N/A,,Unknown,80,2013-05-09 14:51:00
11:51 AM,37.0,34.0,89,30.20,-9999.0,ENE,18.4,-,N/A,,Unknown,60,2013-05-09 15:51:00
12:51 PM,37.9,34.0,86,30.21,-9999.0,ENE,16.1,-,N/A,,Unknown,70,2013-05-09 16:51:00
1:51 PM,37.9,33.1,83,30.23,-9999.0,ENE,13.8,-,N/A,,Unknown,70,2013-05-09 17:51:00
2:51 PM,37.9,33.1,83,30.23,-9999.0,East,13.8,-,N/A,,Unknown,80,2013-05-09 18:51:00
3:51 PM,39.0,33.1,79,30.23,-9999.0,ENE,10.4,-,N/A,,Unknown,70,2013-05-09 19:51:00
4:51 PM,39.0,32.0,76,30.23,-9999.0,ENE,10.4,-,N/A,,Unknown,60,2013-05-09 20:51:00
5:51 PM,39.0,32.0,76,30.22,-9999.0,ENE,11.5,-,N/A,,Unknown,60,2013-05-09 21:51:00
6:51 PM,39.0,32.0,76,30.22,-9999.0,NE,11.5,-,N/A,,Unknown,50,2013-05-09 22:51:00
7:51 PM,39.0,32.0,76,30.22,-9999.0,NE,8.1,-,N/A,,Unknown,50,2013-05-09 23:51:00
8:51 PM,39.0,32.0,76,30.22,-9999.0,ENE,5.8,-,N/A,,Unknown,60,2013-05-10 00:51:00
9:51 PM,37.9,33.1,83,30.23,-9999.0,East,3.5,-,N/A,,Unknown,90,2013-05-10 01:51:00
10:51 PM,37.9,33.1,83,30.24,-9999.0,East,8.1,-,N/A,,Unknown,80,2013-05-10 02:51:00
11:51 PM,37.9,33.1,83,30.23,-9999.0,East,4.6,-,N/A,,Unknown,90,2013-05-10 03:51:00